BAW326 EGKK-GMAD

Flight info

Callsign BAW326
Flight time 3h 33m
Altitude 33000
Route NOVMA1X NOVMA L620 SAM M195 LORKU DCT BALDA/N0452F350 DCT ABUPI DCT TAKAV DCT ESS UR724 DENOB R724 AGALI AGALI2A
Aircraft A320/M-SDE3FGIJ1KRWXY/S

Departure

Time 2026-04-16 08:52
Airport London Gatwick Airport (EGKK)

Arrival

Time 2026-04-16 12:26
Airport Al Massira Airport (GMAD)
Time Latitude Longitude Altitude Speed Heading
2026-04-16 08:28 51.15368 -0.16346 213 ft 0 kts 356°
2026-04-16 08:45 51.15361 -0.16345 205 ft 4 kts 355°
2026-04-16 08:45 51.15335 -0.16338 208 ft 4 kts 334°
2026-04-16 08:46 51.15321 -0.16318 215 ft 3 kts 261°
2026-04-16 08:46 51.15322 -0.16313 214 ft 0 kts 258°
2026-04-16 08:49 51.15321 -0.16314 214 ft 0 kts 258°
2026-04-16 08:49 51.15320 -0.16328 210 ft 2 kts 259°
2026-04-16 08:49 51.15316 -0.16361 211 ft 4 kts 259°
2026-04-16 08:50 51.15312 -0.16393 208 ft 5 kts 259°
2026-04-16 08:50 51.15305 -0.16459 210 ft 7 kts 261°
2026-04-16 08:50 51.15295 -0.16545 205 ft 9 kts 259°
2026-04-16 08:50 51.15273 -0.16640 213 ft 10 kts 223°
2026-04-16 08:51 51.15180 -0.16637 205 ft 11 kts 180°
2026-04-16 08:51 51.15136 -0.16708 210 ft 0 kts 257°
2026-04-16 08:51 51.15097 -0.16985 211 ft 60 kts 257°
2026-04-16 08:52 51.14964 -0.17951 211 ft 116 kts 257°
2026-04-16 08:52 51.14758 -0.19434 216 ft 157 kts 253°
2026-04-16 08:52 51.14505 -0.21155 738 ft 160 kts 255°
2026-04-16 08:52 51.14267 -0.22881 1431 ft 160 kts 257°
2026-04-16 08:53 51.14022 -0.24673 1808 ft 175 kts 257°
2026-04-16 08:53 51.13746 -0.26687 2017 ft 198 kts 256°
2026-04-16 08:53 51.13429 -0.28966 2280 ft 222 kts 257°
2026-04-16 08:53 51.13082 -0.31473 2792 ft 238 kts 257°
2026-04-16 08:54 51.12727 -0.34036 3548 ft 242 kts 257°
2026-04-16 08:54 51.12361 -0.36686 3918 ft 246 kts 256°
2026-04-16 08:54 51.11994 -0.39336 3991 ft 245 kts 257°
2026-04-16 08:54 51.11627 -0.41982 4001 ft 244 kts 256°
2026-04-16 08:55 51.11015 -0.44485 4003 ft 244 kts 243°
2026-04-16 08:55 51.10259 -0.46902 4002 ft 244 kts 244°
2026-04-16 08:55 51.09504 -0.49320 4003 ft 244 kts 243°
2026-04-16 08:55 51.08751 -0.51731 4004 ft 243 kts 243°
2026-04-16 08:56 51.08009 -0.54109 4000 ft 243 kts 244°
2026-04-16 08:56 51.07257 -0.56518 4005 ft 243 kts 243°
2026-04-16 08:56 51.06506 -0.58921 3995 ft 242 kts 244°
2026-04-16 08:56 51.05766 -0.61290 4004 ft 239 kts 244°
2026-04-16 08:57 51.05206 -0.63800 4006 ft 244 kts 257°
2026-04-16 08:57 51.04859 -0.66430 4006 ft 243 kts 257°
2026-04-16 08:57 51.04510 -0.69062 4004 ft 244 kts 257°
2026-04-16 08:57 51.04158 -0.71701 4004 ft 244 kts 257°
2026-04-16 08:58 51.03804 -0.74343 4005 ft 244 kts 257°
2026-04-16 08:58 51.03454 -0.76948 4094 ft 247 kts 257°
2026-04-16 08:58 51.03094 -0.79617 4919 ft 247 kts 257°
2026-04-16 08:58 51.02729 -0.82292 5757 ft 248 kts 257°
2026-04-16 08:59 51.02360 -0.84990 6534 ft 252 kts 257°
2026-04-16 08:59 51.01984 -0.87719 7285 ft 254 kts 257°
2026-04-16 08:59 51.01604 -0.90481 8038 ft 257 kts 257°
2026-04-16 08:59 51.01224 -0.93274 8778 ft 260 kts 257°
2026-04-16 09:00 51.00839 -0.96098 9489 ft 263 kts 257°
2026-04-16 09:00 51.00455 -0.98917 10175 ft 266 kts 257°
2026-04-16 09:00 51.00051 -1.01870 10477 ft 284 kts 257°
2026-04-16 09:00 50.99614 -1.05057 10606 ft 306 kts 257°
2026-04-16 09:01 50.98666 -1.11963 11336 ft 327 kts 257°
2026-04-16 09:01 50.98177 -1.15506 11898 ft 330 kts 257°
2026-04-16 09:01 50.97681 -1.19079 12505 ft 333 kts 257°
2026-04-16 09:02 50.97185 -1.22630 13090 ft 335 kts 258°
2026-04-16 09:02 50.96679 -1.26252 13695 ft 338 kts 258°
2026-04-16 09:02 50.96095 -1.29876 14255 ft 341 kts 251°
2026-04-16 09:02 50.95051 -1.33274 14763 ft 345 kts 239°
2026-04-16 09:03 50.93525 -1.36235 15282 ft 350 kts 226°
2026-04-16 09:03 50.91590 -1.38618 15792 ft 355 kts 217°
2026-04-16 09:03 50.89518 -1.40775 16306 ft 357 kts 217°
2026-04-16 09:03 50.87439 -1.42936 16820 ft 359 kts 217°
2026-04-16 09:04 50.85345 -1.45111 17303 ft 361 kts 217°
2026-04-16 09:04 50.83268 -1.47270 17790 ft 364 kts 217°
2026-04-16 09:04 50.81146 -1.49475 18297 ft 366 kts 217°
2026-04-16 09:04 50.79010 -1.51691 18755 ft 368 kts 217°
2026-04-16 09:05 50.76859 -1.53915 19207 ft 370 kts 217°
2026-04-16 09:05 50.74695 -1.56149 19655 ft 373 kts 217°
2026-04-16 09:05 50.72522 -1.58396 20104 ft 375 kts 217°
2026-04-16 09:05 50.70333 -1.60657 20549 ft 377 kts 217°
2026-04-16 09:06 50.68133 -1.62925 20980 ft 379 kts 217°
2026-04-16 09:06 50.65916 -1.65202 21427 ft 381 kts 217°
2026-04-16 09:06 50.63717 -1.67461 21856 ft 384 kts 217°
2026-04-16 09:06 50.61476 -1.69765 22216 ft 386 kts 217°
2026-04-16 09:07 50.59948 -1.71335 22474 ft 388 kts 217°
2026-04-16 09:07 50.57684 -1.73657 22861 ft 390 kts 217°
2026-04-16 09:07 50.55402 -1.75990 23244 ft 392 kts 217°
2026-04-16 09:07 50.53109 -1.78335 23624 ft 394 kts 218°
2026-04-16 09:08 50.50807 -1.80687 23961 ft 396 kts 218°
2026-04-16 09:08 50.48495 -1.83047 24284 ft 398 kts 218°
2026-04-16 09:08 50.46168 -1.85420 24614 ft 399 kts 218°
2026-04-16 09:08 50.43864 -1.87767 24941 ft 400 kts 218°
2026-04-16 09:09 50.41523 -1.90144 25260 ft 402 kts 218°
2026-04-16 09:09 50.39172 -1.92526 25547 ft 403 kts 218°
2026-04-16 09:09 50.36811 -1.94917 25846 ft 405 kts 218°
2026-04-16 09:09 50.34442 -1.97316 26154 ft 406 kts 218°
2026-04-16 09:10 50.32066 -1.99721 26474 ft 408 kts 218°
2026-04-16 09:10 50.29682 -2.02134 26789 ft 409 kts 218°
2026-04-16 09:10 50.27283 -2.04558 27102 ft 411 kts 219°
2026-04-16 09:10 50.24913 -2.06945 27483 ft 410 kts 219°
2026-04-16 09:11 50.22510 -2.09340 27946 ft 409 kts 218°
2026-04-16 09:11 50.20109 -2.11690 28410 ft 407 kts 218°
2026-04-16 09:11 50.17707 -2.14020 28865 ft 405 kts 218°
2026-04-16 09:11 50.15310 -2.16337 29231 ft 405 kts 218°
2026-04-16 09:12 50.12920 -2.18652 29642 ft 404 kts 219°
2026-04-16 09:12 50.10533 -2.20965 30083 ft 403 kts 219°
2026-04-16 09:12 50.08156 -2.23268 30484 ft 402 kts 219°
2026-04-16 09:12 50.05821 -2.25529 30858 ft 400 kts 219°
2026-04-16 09:13 50.03460 -2.27817 31254 ft 399 kts 219°
2026-04-16 09:13 50.01113 -2.30083 31682 ft 396 kts 219°
2026-04-16 09:13 49.98780 -2.32329 32075 ft 394 kts 219°
2026-04-16 09:14 49.94125 -2.36775 32173 ft 394 kts 216°
2026-04-16 09:14 49.89055 -2.40289 32196 ft 400 kts 211°
2026-04-16 09:15 49.83969 -2.43668 32194 ft 400 kts 211°
2026-04-16 09:15 49.78854 -2.47071 32196 ft 400 kts 211°
2026-04-16 09:16 49.73735 -2.50460 32201 ft 400 kts 211°
2026-04-16 09:16 49.68602 -2.53843 32195 ft 402 kts 211°
2026-04-16 09:17 49.63493 -2.57209 32204 ft 402 kts 211°
2026-04-16 09:17 49.58354 -2.60597 32204 ft 402 kts 211°
2026-04-16 09:18 49.53206 -2.63966 32205 ft 402 kts 210°
2026-04-16 09:18 49.48054 -2.67333 32192 ft 402 kts 210°
2026-04-16 09:19 49.42942 -2.70668 32208 ft 401 kts 210°
2026-04-16 09:19 49.37810 -2.74007 32212 ft 400 kts 210°
2026-04-16 09:20 49.32675 -2.77337 32208 ft 400 kts 210°
2026-04-16 09:20 49.27545 -2.80663 32212 ft 400 kts 210°
2026-04-16 09:21 49.22439 -2.83976 32211 ft 402 kts 210°
2026-04-16 09:21 49.17290 -2.87300 32211 ft 402 kts 210°
2026-04-16 09:22 49.12133 -2.90616 32220 ft 402 kts 210°
2026-04-16 09:22 49.06977 -2.93936 32220 ft 402 kts 210°
2026-04-16 09:23 49.01819 -2.97248 32213 ft 403 kts 209°
2026-04-16 09:23 48.96675 -3.00537 32212 ft 404 kts 209°
2026-04-16 09:24 48.91491 -3.03845 32214 ft 404 kts 209°
2026-04-16 09:24 48.86305 -3.07148 32225 ft 403 kts 209°
2026-04-16 09:25 48.81151 -3.10422 32216 ft 401 kts 209°
2026-04-16 09:25 48.76006 -3.13682 32217 ft 401 kts 209°
2026-04-16 09:26 48.70894 -3.16916 32209 ft 401 kts 209°
2026-04-16 09:26 48.65750 -3.20166 32215 ft 401 kts 209°
2026-04-16 09:27 48.60604 -3.23406 32186 ft 401 kts 209°
2026-04-16 09:27 48.55446 -3.26650 32218 ft 402 kts 209°
2026-04-16 09:28 48.50316 -3.29869 32214 ft 402 kts 208°
2026-04-16 09:28 48.45141 -3.33096 32215 ft 402 kts 208°
2026-04-16 09:29 48.39969 -3.36319 32219 ft 402 kts 208°
2026-04-16 09:29 48.34792 -3.39545 32215 ft 404 kts 208°
2026-04-16 09:30 48.29599 -3.42774 32221 ft 404 kts 208°
2026-04-16 09:30 48.24459 -3.45968 32229 ft 402 kts 208°
2026-04-16 09:31 48.19292 -3.49169 32227 ft 402 kts 208°
2026-04-16 09:31 48.14124 -3.52351 32223 ft 402 kts 208°
2026-04-16 09:32 48.08946 -3.55544 32228 ft 402 kts 208°
2026-04-16 09:32 48.03801 -3.58706 32228 ft 402 kts 208°
2026-04-16 09:33 47.98623 -3.61885 32230 ft 403 kts 208°
2026-04-16 09:33 47.93441 -3.65060 32224 ft 403 kts 208°
2026-04-16 09:34 47.88246 -3.68236 32241 ft 404 kts 207°
2026-04-16 09:34 47.83044 -3.71397 32234 ft 404 kts 207°
2026-04-16 09:35 47.77880 -3.74541 32234 ft 404 kts 208°
2026-04-16 09:35 47.72680 -3.77698 32231 ft 404 kts 207°
2026-04-16 09:36 47.67473 -3.80839 32241 ft 403 kts 207°
2026-04-16 09:36 47.62277 -3.83975 32244 ft 403 kts 207°
2026-04-16 09:37 47.57120 -3.87090 32238 ft 403 kts 207°
2026-04-16 09:37 47.51931 -3.90219 32221 ft 403 kts 207°
2026-04-16 09:38 47.46726 -3.93339 32238 ft 404 kts 207°
2026-04-16 09:38 47.41517 -3.96462 32244 ft 404 kts 207°
2026-04-16 09:39 47.36305 -3.99569 32247 ft 404 kts 207°
2026-04-16 09:39 47.31090 -4.02674 32227 ft 404 kts 207°
2026-04-16 09:40 47.25906 -4.05761 32246 ft 405 kts 207°
2026-04-16 09:40 47.20678 -4.08869 32251 ft 405 kts 207°
2026-04-16 09:41 47.15444 -4.11966 32249 ft 405 kts 206°
2026-04-16 09:41 47.10224 -4.15055 32235 ft 403 kts 206°
2026-04-16 09:42 47.05053 -4.18115 32255 ft 404 kts 206°
2026-04-16 09:42 46.99843 -4.21179 32256 ft 404 kts 206°
2026-04-16 09:43 46.94631 -4.24241 32254 ft 404 kts 206°
2026-04-16 09:43 46.89419 -4.27299 32260 ft 404 kts 206°
2026-04-16 09:44 46.84237 -4.30333 32264 ft 404 kts 206°
2026-04-16 09:44 46.79020 -4.33383 32259 ft 404 kts 206°
2026-04-16 09:45 46.73801 -4.36420 32261 ft 404 kts 206°
2026-04-16 09:45 46.68603 -4.39437 32260 ft 404 kts 206°
2026-04-16 09:45 46.66023 -4.40934 32416 ft 405 kts 206°
2026-04-16 09:46 46.63444 -4.42428 32820 ft 403 kts 206°
2026-04-16 09:46 46.60844 -4.43933 33234 ft 402 kts 206°
2026-04-16 09:46 46.58255 -4.45431 33639 ft 400 kts 206°
2026-04-16 09:46 46.55672 -4.46925 34030 ft 398 kts 206°
2026-04-16 09:47 46.53105 -4.48410 34385 ft 397 kts 206°
2026-04-16 09:47 46.50541 -4.49891 34679 ft 396 kts 206°
2026-04-16 09:47 46.47979 -4.51362 34955 ft 395 kts 206°
2026-04-16 09:47 46.45426 -4.52829 35188 ft 395 kts 206°
2026-04-16 09:48 46.42871 -4.54306 35257 ft 395 kts 206°
2026-04-16 09:48 46.37801 -4.57222 35263 ft 394 kts 206°
2026-04-16 09:49 46.32704 -4.60147 35264 ft 394 kts 206°
2026-04-16 09:49 46.27602 -4.63062 35263 ft 394 kts 205°
2026-04-16 09:50 46.22497 -4.65974 35265 ft 395 kts 205°
2026-04-16 09:50 46.17390 -4.68887 35265 ft 395 kts 205°
2026-04-16 09:51 46.12319 -4.71776 35264 ft 395 kts 205°
2026-04-16 09:51 46.07207 -4.74677 35265 ft 395 kts 205°
2026-04-16 09:52 46.02094 -4.77564 35262 ft 394 kts 205°
2026-04-16 09:52 45.96992 -4.80440 35268 ft 393 kts 205°
2026-04-16 09:53 45.91899 -4.83317 35270 ft 393 kts 205°
2026-04-16 09:53 45.86837 -4.86168 35267 ft 393 kts 205°
2026-04-16 09:54 45.81736 -4.89043 35267 ft 394 kts 205°
2026-04-16 09:54 45.76623 -4.91905 35268 ft 395 kts 205°
2026-04-16 09:55 45.71504 -4.94762 35270 ft 395 kts 205°
2026-04-16 09:55 45.66389 -4.97620 35258 ft 395 kts 205°
2026-04-16 09:56 45.61304 -5.00469 35269 ft 396 kts 205°
2026-04-16 09:56 45.56177 -5.03322 35269 ft 396 kts 205°
2026-04-16 09:57 45.51044 -5.06171 35277 ft 396 kts 205°
2026-04-16 09:57 45.45922 -5.08999 35257 ft 394 kts 204°
2026-04-16 09:58 45.40807 -5.11827 35269 ft 394 kts 204°
2026-04-16 09:58 45.35730 -5.14641 35269 ft 395 kts 204°
2026-04-16 09:59 45.30611 -5.17470 35269 ft 394 kts 204°
2026-04-16 09:59 45.25498 -5.20283 35259 ft 394 kts 204°
2026-04-16 10:00 45.20379 -5.23090 35278 ft 395 kts 204°
2026-04-16 10:00 45.15290 -5.25871 35266 ft 395 kts 204°
2026-04-16 10:01 45.07605 -5.30063 35267 ft 395 kts 204°
2026-04-16 10:01 45.02479 -5.32864 35273 ft 395 kts 204°
2026-04-16 10:02 44.97346 -5.35660 35283 ft 395 kts 204°
2026-04-16 10:02 44.92258 -5.38426 35263 ft 394 kts 204°
2026-04-16 10:03 44.87139 -5.41195 35266 ft 394 kts 204°
2026-04-16 10:03 44.82014 -5.43966 35267 ft 395 kts 204°
2026-04-16 10:04 44.76886 -5.46744 35269 ft 395 kts 204°
2026-04-16 10:04 44.71816 -5.49481 35575 ft 395 kts 204°
2026-04-16 10:05 44.69252 -5.50861 35853 ft 394 kts 204°
2026-04-16 10:05 44.66727 -5.52217 36106 ft 393 kts 204°
2026-04-16 10:05 44.64176 -5.53587 36368 ft 393 kts 204°
2026-04-16 10:05 44.61621 -5.54959 36614 ft 392 kts 204°
2026-04-16 10:06 44.59087 -5.56364 36854 ft 391 kts 205°
2026-04-16 10:06 44.56589 -5.57866 37085 ft 390 kts 207°
2026-04-16 10:06 44.54112 -5.59426 37237 ft 390 kts 207°
2026-04-16 10:06 44.51632 -5.61011 37267 ft 392 kts 207°
2026-04-16 10:07 44.46686 -5.64141 37254 ft 393 kts 207°
2026-04-16 10:07 44.41675 -5.67248 37263 ft 394 kts 206°
2026-04-16 10:08 44.36653 -5.70326 37266 ft 394 kts 206°
2026-04-16 10:08 44.31623 -5.73401 37260 ft 395 kts 206°
2026-04-16 10:09 44.26590 -5.76486 37245 ft 395 kts 207°
2026-04-16 10:09 44.21579 -5.79556 37252 ft 397 kts 206°
2026-04-16 10:10 44.16520 -5.82641 37259 ft 397 kts 206°
2026-04-16 10:10 44.11453 -5.85722 37265 ft 397 kts 206°
2026-04-16 10:11 44.06385 -5.88799 37257 ft 397 kts 207°
2026-04-16 10:11 44.01313 -5.91877 37258 ft 398 kts 207°
2026-04-16 10:12 43.96271 -5.94936 37259 ft 398 kts 207°
2026-04-16 10:12 43.91187 -5.98007 37258 ft 399 kts 207°
2026-04-16 10:13 43.86103 -6.01079 37241 ft 399 kts 207°
2026-04-16 10:13 43.81009 -6.04156 37244 ft 400 kts 207°
2026-04-16 10:14 43.75934 -6.07205 37248 ft 401 kts 207°
2026-04-16 10:14 43.70821 -6.10269 37254 ft 401 kts 207°
2026-04-16 10:15 43.65697 -6.13331 37236 ft 401 kts 207°
2026-04-16 10:15 43.60566 -6.16402 37238 ft 402 kts 207°
2026-04-16 10:16 43.55462 -6.19448 37246 ft 403 kts 207°
2026-04-16 10:16 43.50320 -6.22518 37248 ft 403 kts 207°
2026-04-16 10:17 43.45170 -6.25582 37227 ft 404 kts 208°
2026-04-16 10:17 43.40010 -6.28648 37223 ft 404 kts 208°
2026-04-16 10:18 43.34835 -6.31715 37225 ft 405 kts 208°
2026-04-16 10:18 43.29686 -6.34749 37228 ft 406 kts 207°
2026-04-16 10:19 43.24501 -6.37805 37205 ft 406 kts 208°
2026-04-16 10:19 43.19311 -6.40870 37205 ft 406 kts 208°
2026-04-16 10:20 43.14109 -6.43925 37209 ft 407 kts 208°
2026-04-16 10:20 43.08904 -6.46980 37214 ft 408 kts 208°
2026-04-16 10:21 43.03723 -6.50014 37195 ft 408 kts 208°
2026-04-16 10:21 42.98501 -6.53075 37202 ft 409 kts 208°
2026-04-16 10:22 42.93272 -6.56133 37208 ft 409 kts 208°
2026-04-16 10:22 42.88072 -6.59149 37210 ft 409 kts 208°
2026-04-16 10:23 42.82832 -6.62187 37204 ft 409 kts 207°
2026-04-16 10:23 42.77596 -6.65227 37199 ft 409 kts 207°
2026-04-16 10:24 42.72352 -6.68266 37208 ft 410 kts 208°
2026-04-16 10:24 42.67100 -6.71303 37210 ft 410 kts 207°
2026-04-16 10:25 42.61883 -6.74317 37209 ft 410 kts 207°
2026-04-16 10:25 42.56630 -6.77349 37212 ft 410 kts 207°
2026-04-16 10:26 42.51370 -6.80373 37215 ft 411 kts 207°
2026-04-16 10:26 42.46106 -6.83399 37215 ft 411 kts 208°
2026-04-16 10:27 42.40879 -6.86391 37219 ft 411 kts 207°
2026-04-16 10:27 42.35614 -6.89396 37212 ft 411 kts 207°
2026-04-16 10:28 42.30347 -6.92403 37214 ft 411 kts 208°
2026-04-16 10:28 42.25080 -6.95411 37214 ft 411 kts 207°
2026-04-16 10:29 42.19838 -6.98389 37227 ft 412 kts 207°
2026-04-16 10:29 42.14557 -7.01382 37219 ft 412 kts 207°
2026-04-16 10:30 42.09272 -7.04374 37217 ft 412 kts 207°
2026-04-16 10:30 42.03975 -7.07371 37228 ft 413 kts 207°
2026-04-16 10:31 41.98684 -7.10363 37224 ft 413 kts 207°
2026-04-16 10:31 41.93418 -7.13332 37216 ft 413 kts 207°
2026-04-16 10:32 41.88112 -7.16319 37221 ft 414 kts 207°
2026-04-16 10:32 41.82798 -7.19303 37228 ft 414 kts 207°
2026-04-16 10:33 41.77479 -7.22279 37237 ft 414 kts 207°
2026-04-16 10:33 41.72057 -7.24842 37229 ft 418 kts 201°
2026-04-16 10:34 41.66480 -7.27084 37233 ft 418 kts 201°
2026-04-16 10:34 41.60900 -7.29326 37243 ft 419 kts 201°
2026-04-16 10:35 41.55314 -7.31562 37242 ft 419 kts 201°
2026-04-16 10:35 41.49721 -7.33795 37232 ft 419 kts 201°
2026-04-16 10:36 41.44165 -7.36011 37236 ft 420 kts 201°
2026-04-16 10:36 41.38572 -7.38243 37240 ft 420 kts 201°
2026-04-16 10:37 41.32973 -7.40472 37240 ft 420 kts 201°
2026-04-16 10:37 41.27376 -7.42700 37235 ft 420 kts 201°
2026-04-16 10:38 41.21809 -7.44903 37233 ft 421 kts 201°
2026-04-16 10:38 41.16193 -7.47118 37239 ft 421 kts 201°
2026-04-16 10:39 41.10582 -7.49331 37243 ft 421 kts 201°
2026-04-16 10:39 41.04970 -7.51543 37234 ft 420 kts 201°
2026-04-16 10:40 40.99401 -7.53729 37232 ft 420 kts 201°
2026-04-16 10:40 40.93791 -7.55921 37242 ft 420 kts 201°
2026-04-16 10:41 40.88181 -7.58114 37224 ft 420 kts 201°
2026-04-16 10:41 40.82574 -7.60320 37247 ft 420 kts 201°
2026-04-16 10:42 40.76971 -7.62522 37248 ft 420 kts 201°
2026-04-16 10:42 40.71407 -7.64691 37248 ft 420 kts 201°
2026-04-16 10:43 40.65802 -7.66868 37242 ft 420 kts 201°
2026-04-16 10:43 40.60208 -7.69041 37234 ft 419 kts 200°
2026-04-16 10:44 40.54610 -7.71210 37243 ft 419 kts 200°
2026-04-16 10:44 40.49014 -7.73374 37246 ft 419 kts 200°
2026-04-16 10:45 40.43462 -7.75523 37242 ft 419 kts 200°
2026-04-16 10:45 40.37873 -7.77687 37240 ft 419 kts 200°
2026-04-16 10:46 40.32281 -7.79843 37239 ft 419 kts 200°
2026-04-16 10:46 40.26720 -7.81973 37237 ft 419 kts 200°
2026-04-16 10:47 40.21122 -7.84109 37239 ft 419 kts 200°
2026-04-16 10:47 40.15530 -7.86256 37228 ft 419 kts 200°
2026-04-16 10:48 40.09928 -7.88404 37234 ft 419 kts 200°
2026-04-16 10:48 40.04328 -7.90546 37236 ft 419 kts 200°
2026-04-16 10:49 39.98762 -7.92669 37228 ft 420 kts 200°
2026-04-16 10:49 39.93156 -7.94804 37224 ft 420 kts 200°
2026-04-16 10:50 39.87541 -7.96931 37225 ft 420 kts 200°
2026-04-16 10:50 39.81923 -7.99060 37228 ft 420 kts 200°
2026-04-16 10:51 39.76339 -8.01174 37225 ft 421 kts 200°
2026-04-16 10:51 39.70718 -8.03298 37216 ft 421 kts 200°
2026-04-16 10:52 39.65092 -8.05419 37227 ft 421 kts 200°
2026-04-16 10:52 39.59466 -8.07539 37231 ft 421 kts 200°
2026-04-16 10:53 39.53834 -8.09652 37233 ft 421 kts 200°
2026-04-16 10:53 39.48242 -8.11755 37222 ft 421 kts 200°
2026-04-16 10:54 39.42612 -8.13871 37233 ft 421 kts 200°
2026-04-16 10:54 39.36984 -8.15982 37234 ft 421 kts 200°
2026-04-16 10:55 39.31349 -8.18082 37236 ft 421 kts 200°
2026-04-16 10:55 39.25717 -8.20180 37229 ft 421 kts 199°
2026-04-16 10:56 39.20122 -8.22262 37230 ft 421 kts 199°
2026-04-16 10:56 39.14488 -8.24366 37232 ft 421 kts 200°
2026-04-16 10:57 39.08855 -8.26463 37231 ft 422 kts 199°
2026-04-16 10:57 39.03212 -8.28547 37215 ft 422 kts 199°
2026-04-16 10:58 38.97570 -8.30627 37220 ft 422 kts 199°
2026-04-16 10:58 38.91963 -8.32696 37224 ft 422 kts 199°
2026-04-16 10:59 38.86317 -8.34781 37236 ft 422 kts 199°
2026-04-16 10:59 38.80669 -8.36857 37228 ft 422 kts 199°
2026-04-16 11:00 38.75020 -8.38929 37234 ft 422 kts 199°
2026-04-16 11:00 38.69417 -8.40988 37234 ft 422 kts 199°
2026-04-16 11:01 38.63774 -8.43052 37236 ft 422 kts 199°
2026-04-16 11:01 38.58125 -8.45111 37223 ft 422 kts 198°
2026-04-16 11:02 38.52476 -8.47171 37223 ft 422 kts 198°
2026-04-16 11:02 38.46864 -8.49224 37224 ft 422 kts 198°
2026-04-16 11:03 38.41212 -8.51285 37224 ft 423 kts 198°
2026-04-16 11:04 38.32723 -8.54366 37217 ft 423 kts 198°
2026-04-16 11:04 38.27060 -8.56422 37218 ft 423 kts 198°
2026-04-16 11:05 38.21393 -8.58471 37220 ft 423 kts 198°
2026-04-16 11:05 38.15761 -8.60505 37224 ft 424 kts 198°
2026-04-16 11:06 38.10086 -8.62547 37226 ft 424 kts 198°
2026-04-16 11:06 38.04413 -8.64587 37226 ft 424 kts 198°
2026-04-16 11:07 37.98735 -8.66625 37224 ft 424 kts 198°
2026-04-16 11:07 37.93055 -8.68660 37222 ft 424 kts 198°
2026-04-16 11:08 37.87418 -8.70692 37222 ft 424 kts 198°
2026-04-16 11:08 37.81735 -8.72732 37223 ft 424 kts 197°
2026-04-16 11:09 37.76054 -8.74752 37223 ft 424 kts 197°
2026-04-16 11:09 37.70371 -8.76768 37223 ft 424 kts 197°
2026-04-16 11:10 37.64726 -8.78775 37218 ft 424 kts 197°
2026-04-16 11:10 37.59044 -8.80800 37212 ft 424 kts 197°
2026-04-16 11:11 37.53366 -8.82824 37214 ft 424 kts 197°
2026-04-16 11:11 37.47682 -8.84833 37214 ft 424 kts 197°
2026-04-16 11:12 37.41994 -8.86836 37211 ft 424 kts 197°
2026-04-16 11:12 37.36346 -8.88827 37199 ft 424 kts 197°
2026-04-16 11:13 37.30663 -8.90841 37203 ft 425 kts 197°
2026-04-16 11:13 37.24973 -8.92854 37203 ft 425 kts 197°
2026-04-16 11:14 37.19282 -8.94853 37211 ft 425 kts 197°
2026-04-16 11:14 37.13627 -8.96839 37209 ft 425 kts 197°
2026-04-16 11:15 37.07958 -8.98824 37206 ft 425 kts 196°
2026-04-16 11:15 37.02261 -9.00810 37207 ft 425 kts 196°
2026-04-16 11:16 36.96562 -9.02800 37202 ft 425 kts 196°
2026-04-16 11:16 36.90905 -9.04775 37202 ft 425 kts 196°
2026-04-16 11:17 36.85205 -9.06759 37199 ft 425 kts 196°
2026-04-16 11:17 36.79501 -9.08737 37198 ft 425 kts 196°
2026-04-16 11:18 36.73800 -9.10717 37202 ft 425 kts 196°
2026-04-16 11:18 36.68135 -9.12688 37202 ft 425 kts 196°
2026-04-16 11:19 36.62432 -9.14667 37199 ft 425 kts 195°
2026-04-16 11:19 36.56726 -9.16642 37196 ft 426 kts 195°
2026-04-16 11:20 36.51017 -9.18604 37199 ft 426 kts 195°
2026-04-16 11:20 36.45343 -9.20552 37195 ft 426 kts 195°
2026-04-16 11:21 36.39626 -9.22517 37197 ft 426 kts 195°
2026-04-16 11:21 36.33909 -9.24488 37189 ft 427 kts 195°
2026-04-16 11:22 36.28185 -9.26453 37189 ft 427 kts 195°
2026-04-16 11:22 36.22462 -9.28411 37191 ft 427 kts 195°
2026-04-16 11:23 36.16771 -9.30354 37192 ft 427 kts 195°
2026-04-16 11:23 36.11037 -9.32304 37189 ft 427 kts 195°
2026-04-16 11:24 36.05301 -9.34260 37186 ft 428 kts 195°
2026-04-16 11:24 36.00528 -9.35891 37186 ft 428 kts 195°
2026-04-16 11:25 35.93743 -9.37435 37180 ft 428 kts 183°
2026-04-16 11:25 35.87799 -9.37850 37179 ft 428 kts 183°
2026-04-16 11:26 35.82852 -9.38197 37170 ft 428 kts 183°
2026-04-16 11:26 35.76896 -9.38632 37172 ft 429 kts 183°
2026-04-16 11:27 35.70936 -9.39065 37175 ft 429 kts 183°
2026-04-16 11:27 35.64972 -9.39490 37177 ft 429 kts 183°
2026-04-16 11:28 35.59047 -9.39922 37181 ft 429 kts 183°
2026-04-16 11:28 35.53079 -9.40358 37176 ft 430 kts 183°
2026-04-16 11:29 35.47110 -9.40786 37176 ft 430 kts 183°
2026-04-16 11:29 35.41140 -9.41206 37176 ft 430 kts 183°
2026-04-16 11:30 35.35205 -9.41630 37169 ft 430 kts 183°
2026-04-16 11:30 35.29229 -9.42061 37168 ft 430 kts 183°
2026-04-16 11:31 35.23252 -9.42489 37169 ft 431 kts 183°
2026-04-16 11:31 35.17269 -9.42920 37166 ft 431 kts 183°
2026-04-16 11:32 35.11285 -9.43353 37164 ft 431 kts 183°
2026-04-16 11:32 35.05338 -9.43772 37161 ft 431 kts 183°
2026-04-16 11:33 34.99348 -9.44201 37165 ft 431 kts 183°
2026-04-16 11:33 34.93358 -9.44627 37159 ft 431 kts 183°
2026-04-16 11:34 34.87365 -9.45046 37152 ft 431 kts 182°
2026-04-16 11:34 34.81372 -9.45464 37153 ft 431 kts 182°
2026-04-16 11:35 34.75417 -9.45894 37158 ft 432 kts 182°
2026-04-16 11:35 34.69420 -9.46317 37163 ft 432 kts 182°
2026-04-16 11:36 34.63423 -9.46742 37159 ft 432 kts 182°
2026-04-16 11:36 34.57428 -9.47163 37155 ft 432 kts 182°
2026-04-16 11:37 34.51462 -9.47581 37149 ft 432 kts 182°
2026-04-16 11:37 34.45457 -9.47998 37145 ft 432 kts 182°
2026-04-16 11:38 34.39450 -9.48412 37145 ft 433 kts 182°
2026-04-16 11:38 34.33439 -9.48833 37143 ft 433 kts 182°
2026-04-16 11:39 34.27464 -9.49260 37146 ft 433 kts 182°
2026-04-16 11:39 34.21451 -9.49689 37143 ft 433 kts 182°
2026-04-16 11:40 34.15433 -9.50102 37138 ft 433 kts 182°
2026-04-16 11:40 34.09416 -9.50517 37139 ft 433 kts 182°
2026-04-16 11:41 34.03437 -9.50939 37135 ft 433 kts 182°
2026-04-16 11:41 33.97417 -9.51353 37135 ft 433 kts 182°
2026-04-16 11:42 33.91397 -9.51764 37137 ft 433 kts 182°
2026-04-16 11:42 33.85377 -9.52182 37137 ft 433 kts 182°
2026-04-16 11:43 33.79395 -9.52592 37131 ft 434 kts 183°
2026-04-16 11:43 33.73368 -9.53006 37131 ft 434 kts 183°
2026-04-16 11:44 33.67344 -9.53427 37128 ft 434 kts 183°
2026-04-16 11:44 33.61315 -9.53845 37129 ft 434 kts 183°
2026-04-16 11:45 33.55324 -9.54261 37127 ft 434 kts 183°
2026-04-16 11:45 33.49295 -9.54674 37125 ft 434 kts 183°
2026-04-16 11:46 33.43261 -9.55080 37125 ft 434 kts 183°
2026-04-16 11:46 33.37230 -9.55496 37123 ft 434 kts 183°
2026-04-16 11:47 33.31194 -9.55907 37121 ft 434 kts 183°
2026-04-16 11:47 33.25202 -9.56312 37119 ft 434 kts 183°
2026-04-16 11:48 33.19167 -9.56728 37115 ft 434 kts 183°
2026-04-16 11:48 33.13129 -9.57144 37117 ft 434 kts 183°
2026-04-16 11:49 33.07093 -9.57556 36936 ft 435 kts 183°
2026-04-16 11:49 33.04069 -9.57758 36631 ft 435 kts 183°
2026-04-16 11:49 33.01090 -9.57960 36324 ft 435 kts 183°
2026-04-16 11:49 32.98069 -9.58164 36022 ft 435 kts 182°
2026-04-16 11:50 32.95047 -9.58364 35725 ft 435 kts 182°
2026-04-16 11:50 32.92019 -9.58567 35432 ft 436 kts 182°
2026-04-16 11:50 32.88987 -9.58770 35139 ft 437 kts 182°
2026-04-16 11:50 32.85952 -9.58975 34854 ft 437 kts 182°
2026-04-16 11:51 32.82917 -9.59180 34571 ft 438 kts 182°
2026-04-16 11:51 32.79875 -9.59384 34283 ft 438 kts 182°
2026-04-16 11:51 32.76831 -9.59587 33992 ft 438 kts 182°
2026-04-16 11:51 32.73832 -9.59791 33672 ft 438 kts 182°
2026-04-16 11:52 32.70787 -9.60000 33349 ft 438 kts 182°
2026-04-16 11:52 32.67738 -9.60208 33026 ft 439 kts 182°
2026-04-16 11:52 32.64688 -9.60415 32714 ft 440 kts 182°
2026-04-16 11:52 32.61630 -9.60623 32401 ft 440 kts 182°
2026-04-16 11:53 32.58574 -9.60829 32089 ft 440 kts 182°
2026-04-16 11:53 32.55513 -9.61034 31782 ft 440 kts 182°
2026-04-16 11:53 32.52466 -9.61238 31480 ft 437 kts 182°
2026-04-16 11:53 32.49481 -9.61439 31188 ft 434 kts 183°
2026-04-16 11:54 32.46467 -9.61642 30887 ft 433 kts 183°
2026-04-16 11:54 32.43458 -9.61847 30597 ft 432 kts 182°
2026-04-16 11:54 32.40460 -9.62057 30310 ft 430 kts 183°
2026-04-16 11:54 32.37482 -9.62264 29997 ft 429 kts 183°
2026-04-16 11:55 32.34510 -9.62466 29658 ft 427 kts 183°
2026-04-16 11:55 32.31543 -9.62664 29326 ft 426 kts 183°
2026-04-16 11:55 32.28593 -9.62858 28992 ft 423 kts 183°
2026-04-16 11:55 32.25659 -9.63051 28666 ft 422 kts 183°
2026-04-16 11:56 32.22773 -9.63238 28340 ft 420 kts 183°
2026-04-16 11:56 32.19872 -9.63430 28019 ft 416 kts 183°
2026-04-16 11:56 32.16986 -9.63623 27704 ft 414 kts 183°
2026-04-16 11:56 32.14120 -9.63816 27392 ft 412 kts 183°
2026-04-16 11:57 32.11254 -9.64009 27085 ft 413 kts 183°
2026-04-16 11:57 32.08392 -9.64202 26788 ft 411 kts 183°
2026-04-16 11:57 32.05544 -9.64395 26478 ft 409 kts 183°
2026-04-16 11:57 32.02704 -9.64581 26179 ft 408 kts 183°
2026-04-16 11:58 31.99906 -9.64763 25886 ft 408 kts 183°
2026-04-16 11:58 31.97077 -9.64951 25589 ft 407 kts 183°
2026-04-16 11:58 31.94253 -9.65138 25301 ft 406 kts 183°
2026-04-16 11:58 31.91439 -9.65323 25016 ft 405 kts 183°
2026-04-16 11:59 31.88628 -9.65506 24731 ft 404 kts 183°
2026-04-16 11:59 31.85822 -9.65694 24450 ft 403 kts 183°
2026-04-16 11:59 31.83024 -9.65881 24173 ft 402 kts 183°
2026-04-16 11:59 31.80234 -9.66066 23895 ft 401 kts 183°
2026-04-16 12:00 31.77449 -9.66250 23614 ft 400 kts 183°
2026-04-16 12:00 31.74713 -9.66431 23294 ft 399 kts 184°
2026-04-16 12:00 31.71946 -9.66612 22970 ft 397 kts 184°
2026-04-16 12:00 31.69197 -9.66788 22647 ft 394 kts 184°
2026-04-16 12:01 31.66465 -9.66964 22330 ft 392 kts 184°
2026-04-16 12:01 31.63746 -9.67142 22017 ft 391 kts 184°
2026-04-16 12:01 31.61036 -9.67323 21707 ft 389 kts 184°
2026-04-16 12:02 31.55686 -9.67675 21100 ft 386 kts 184°
2026-04-16 12:02 31.53008 -9.67854 20803 ft 385 kts 184°
2026-04-16 12:02 31.50341 -9.68033 20512 ft 383 kts 184°
2026-04-16 12:02 31.47682 -9.68209 20209 ft 382 kts 184°
2026-04-16 12:03 31.45031 -9.68381 19918 ft 381 kts 184°
2026-04-16 12:03 31.42390 -9.68543 19618 ft 379 kts 183°
2026-04-16 12:03 31.39759 -9.68429 19335 ft 379 kts 175°
2026-04-16 12:03 31.37166 -9.67874 19052 ft 379 kts 167°
2026-04-16 12:04 31.34642 -9.67162 18775 ft 378 kts 168°
2026-04-16 12:04 31.32087 -9.66446 18501 ft 377 kts 168°
2026-04-16 12:04 31.29542 -9.65735 18194 ft 376 kts 168°
2026-04-16 12:04 31.27003 -9.65031 17879 ft 374 kts 168°
2026-04-16 12:05 31.24479 -9.64331 17561 ft 372 kts 168°
2026-04-16 12:05 31.21970 -9.63631 17254 ft 370 kts 168°
2026-04-16 12:05 31.19468 -9.62931 16946 ft 369 kts 167°
2026-04-16 12:05 31.16982 -9.62236 16640 ft 367 kts 168°
2026-04-16 12:06 31.14503 -9.61545 16340 ft 366 kts 168°
2026-04-16 12:06 31.12068 -9.60868 16039 ft 364 kts 168°
2026-04-16 12:06 31.09616 -9.60188 15743 ft 361 kts 168°
2026-04-16 12:06 31.07174 -9.59510 15445 ft 360 kts 167°
2026-04-16 12:07 31.04746 -9.58831 15150 ft 358 kts 167°
2026-04-16 12:07 31.02332 -9.58146 14867 ft 356 kts 168°
2026-04-16 12:07 30.99926 -9.57454 14583 ft 355 kts 167°
2026-04-16 12:07 30.97531 -9.56764 14297 ft 354 kts 167°
2026-04-16 12:08 30.95151 -9.56080 14022 ft 352 kts 167°
2026-04-16 12:08 30.92812 -9.55409 13727 ft 350 kts 167°
2026-04-16 12:08 30.90454 -9.54732 13406 ft 348 kts 167°
2026-04-16 12:08 30.88112 -9.54060 13099 ft 346 kts 167°
2026-04-16 12:09 30.85781 -9.53392 12796 ft 344 kts 167°
2026-04-16 12:09 30.83457 -9.52729 12481 ft 343 kts 167°
2026-04-16 12:09 30.81149 -9.52070 12178 ft 341 kts 167°
2026-04-16 12:09 30.78852 -9.51414 11879 ft 339 kts 167°
2026-04-16 12:10 30.76567 -9.50761 11585 ft 337 kts 168°
2026-04-16 12:10 30.74321 -9.50122 11295 ft 336 kts 167°
2026-04-16 12:10 30.72060 -9.49478 10996 ft 334 kts 167°
2026-04-16 12:10 30.69808 -9.48842 10708 ft 333 kts 168°
2026-04-16 12:11 30.67573 -9.48214 10417 ft 327 kts 167°
2026-04-16 12:11 30.65376 -9.47601 10134 ft 323 kts 167°
2026-04-16 12:11 30.63232 -9.47003 9837 ft 310 kts 167°
2026-04-16 12:11 30.61206 -9.46345 9531 ft 296 kts 158°
2026-04-16 12:12 30.59479 -9.45137 9205 ft 286 kts 140°
2026-04-16 12:12 30.58194 -9.43433 8902 ft 278 kts 122°
2026-04-16 12:12 30.57431 -9.41451 8600 ft 271 kts 106°
2026-04-16 12:12 30.57181 -9.39300 8283 ft 269 kts 90°
2026-04-16 12:13 30.57154 -9.37129 8006 ft 268 kts 95°
2026-04-16 12:13 30.56973 -9.34977 7708 ft 268 kts 99°
2026-04-16 12:13 30.56665 -9.32839 7417 ft 270 kts 103°
2026-04-16 12:13 30.56225 -9.30723 7129 ft 270 kts 107°
2026-04-16 12:14 30.55655 -9.28640 6843 ft 271 kts 111°
2026-04-16 12:14 30.54958 -9.26613 6559 ft 271 kts 115°
2026-04-16 12:14 30.54143 -9.24679 6462 ft 264 kts 120°
2026-04-16 12:14 30.53238 -9.22880 6310 ft 260 kts 124°
2026-04-16 12:15 30.52217 -9.21161 6013 ft 258 kts 129°
2026-04-16 12:15 30.51114 -9.19558 5723 ft 250 kts 133°
2026-04-16 12:15 30.49961 -9.18098 5424 ft 241 kts 137°
2026-04-16 12:15 30.48766 -9.16782 5131 ft 233 kts 141°
2026-04-16 12:16 30.47540 -9.15599 4846 ft 227 kts 145°
2026-04-16 12:16 30.46266 -9.14525 4555 ft 227 kts 148°
2026-04-16 12:16 30.44941 -9.13548 4261 ft 226 kts 152°
2026-04-16 12:16 30.43587 -9.12675 3974 ft 225 kts 155°
2026-04-16 12:17 30.42205 -9.11907 3827 ft 213 kts 159°
2026-04-16 12:17 30.40861 -9.11270 3530 ft 205 kts 163°
2026-04-16 12:17 30.39538 -9.10748 3239 ft 197 kts 166°
2026-04-16 12:17 30.38239 -9.10330 2948 ft 192 kts 169°
2026-04-16 12:18 30.36968 -9.10003 2665 ft 180 kts 171°
2026-04-16 12:18 30.35796 -9.09769 2513 ft 162 kts 175°
2026-04-16 12:18 30.34697 -9.09611 2492 ft 157 kts 177°
2026-04-16 12:18 30.33643 -9.09633 2485 ft 152 kts 194°
2026-04-16 12:19 30.32691 -9.10100 2502 ft 146 kts 216°
2026-04-16 12:19 30.31984 -9.10918 2496 ft 143 kts 237°
2026-04-16 12:19 30.31593 -9.11979 2500 ft 144 kts 258°
2026-04-16 12:19 30.31550 -9.13132 2503 ft 144 kts 269°
2026-04-16 12:20 30.31581 -9.14294 2493 ft 144 kts 270°
2026-04-16 12:20 30.31612 -9.15449 2499 ft 143 kts 270°
2026-04-16 12:20 30.31642 -9.16600 2494 ft 143 kts 270°
2026-04-16 12:20 30.31672 -9.17740 2497 ft 145 kts 270°
2026-04-16 12:21 30.31702 -9.18904 2494 ft 144 kts 270°
2026-04-16 12:21 30.31732 -9.20059 2499 ft 144 kts 270°
2026-04-16 12:21 30.31762 -9.21213 2496 ft 143 kts 270°
2026-04-16 12:21 30.31791 -9.22364 2499 ft 142 kts 270°
2026-04-16 12:22 30.31821 -9.23507 2497 ft 143 kts 270°
2026-04-16 12:22 30.31850 -9.24658 2502 ft 142 kts 269°
2026-04-16 12:22 30.31879 -9.25798 2421 ft 141 kts 270°
2026-04-16 12:22 30.31908 -9.26943 2274 ft 142 kts 270°
2026-04-16 12:23 30.31937 -9.28075 2112 ft 142 kts 270°
2026-04-16 12:23 30.31966 -9.29226 1940 ft 143 kts 271°
2026-04-16 12:23 30.31994 -9.30366 1768 ft 142 kts 271°
2026-04-16 12:23 30.32023 -9.31510 1587 ft 143 kts 272°
2026-04-16 12:24 30.32051 -9.32657 1391 ft 142 kts 272°
2026-04-16 12:24 30.32080 -9.33793 1209 ft 142 kts 271°
2026-04-16 12:24 30.32110 -9.34941 1129 ft 143 kts 270°
2026-04-16 12:24 30.32166 -9.36106 891 ft 146 kts 276°
2026-04-16 12:25 30.32247 -9.37259 791 ft 141 kts 269°
2026-04-16 12:25 30.32230 -9.38438 490 ft 144 kts 267°
2026-04-16 12:25 30.32228 -9.39552 288 ft 140 kts 269°
2026-04-16 12:25 30.32248 -9.40583 233 ft 111 kts 269°
2026-04-16 12:26 30.32268 -9.41273 231 ft 61 kts 272°
2026-04-16 12:26 30.32269 -9.41627 231 ft 36 kts 271°
2026-04-16 12:26 30.32319 -9.41891 231 ft 32 kts 291°
2026-04-16 12:26 30.32396 -9.42043 231 ft 20 kts 303°
2026-04-16 12:27 30.32451 -9.42146 231 ft 16 kts 304°
2026-04-16 12:27 30.32556 -9.42193 231 ft 18 kts
2026-04-16 12:27 30.32683 -9.42189 231 ft 17 kts 360°
2026-04-16 12:27 30.32796 -9.42179 231 ft 16 kts 19°
2026-04-16 12:28 30.32833 -9.42068 231 ft 16 kts 91°
2026-04-16 12:28 30.32830 -9.41938 231 ft 16 kts 92°
2026-04-16 12:28 30.32827 -9.41799 231 ft 18 kts 92°
2026-04-16 12:28 30.32823 -9.41653 231 ft 18 kts 90°
2026-04-16 12:29 30.32821 -9.41513 231 ft 15 kts 91°
2026-04-16 12:29 30.32817 -9.41406 231 ft 13 kts 92°
2026-04-16 12:29 30.32814 -9.41303 231 ft 10 kts 91°
2026-04-16 12:29 30.32812 -9.41222 231 ft 11 kts 91°
2026-04-16 12:30 30.32811 -9.41134 231 ft 10 kts 91°
2026-04-16 12:30 30.32859 -9.41095 231 ft 10 kts 359°
2026-04-16 12:30 30.32890 -9.41094 231 ft 0 kts